User: anonymous   Login
Location: Unspecified
(0.0000°N, 0.0000°E)
Time: 21:47:28
(UTC+00:00)
Language:

USA 142 - Orbit

View from above orbital plane
View from above orbital plane
View from above satellite
View from above satellite

Ground track
Ground track

The orbit data is extracted from the following two-line orbital elements,

1 25669U 99017A   20041.13254285 0.00000000  00000-0  00000-0 0    04
2 25669  28.6775 143.8319 7118486 298.7472   8.5964  2.32910511    04
Epoch (UTC): 10 February 2020 03:10:51
Eccentricity: 0.7118486
inclination: 28.6775°
perigee height: 549 km
apogee height: 34775 km
right ascension of ascending node: 143.8319°
argument of perigee: 298.7472°
revolutions per day: 2.32910511
mean anomaly at epoch: 8.5964°
orbit number at epoch: 0

The dashed part of the orbit path shows where the satellite is in the earth's shadow,  

DLR